Wind_Speed
5 5 5 4 4 4 4 3 2 1 1 1 1 1 2 2 2 3 3 3 3 4 4 4 4 4 4 3 3 3 3 4 4 5 5 5 5 5 5 5 5 5 6 5 5 5 5 5 5
5 5 4 4 4 4 4 3 2 2 1 1 1 1 2 2 2 3 3 3 3 4 4 4 4 5 5 5 4 4 4 4 5 5 5 5 5 6 6 5 6 6 6 6 6 6 6 5 5
5 5 4 4 4 4 4 3 3 2 2 2 2 2 2 2 3 3 3 3 3 3 3 4 4 5 5 5 5 5 5 5 5 5 5 5 6 6 6 6 6 7 7 7 7 6 7 6 6
6 5 5 4 4 4 3 3 3 3 2 2 2 1 1 2 2 3 3 4 3 3 3 4 4 5 5 5 6 6 6 6 5 5 6 5 6 6 6 6 6 7 7 7 7 7 7 7 7
6 5 5 5 4 4 3 3 3 2 3 3 3 3 2 1 2 2 3 4 4 4 4 4 5 5 5 5 5 6 5 6 6 6 6 6 6 6 6 6 5 6 7 7 7 7 7 7 7
5 5 5 5 4 4 3 3 4 4 3 3 3 3 3 2 2 2 3 3 4 4 4 4 4 5 5 5 5 5 6 6 6 5 6 6 6 6 6 6 6 6 6 7 7 7 7 7 7
5 5 5 4 4 4 4 4 4 4 4 4 3 3 3 2 2 2 2 3 4 4 5 4 4 5 5 5 5 5 5 6 6 6 6 6 6 6 7 6 6 6 6 6 6 7 7 8 8
5 5 4 4 4 4 4 4 4 4 4 4 4 3 3 3 2 2 3 3 4 4 5 4 4 5 5 5 5 5 5 6 6 6 6 6 6 6 6 6 6 7 7 6 5 6 7 8 8
5 5 5 5 5 5 4 4 4 4 4 4 4 4 3 3 2 2 3 2 3 3 3 4 3 4 4 5 4 5 5 5 6 6 6 6 6 6 6 6 7 7 8 7 7 7 8 8 8
5 5 5 5 5 5 5 5 5 5 4 5 4 4 4 3 3 3 3 3 2 2 2 3 3 4 4 4 4 4 4 5 6 7 7 7 7 7 7 7 7 7 7 8 7 8 8 8 8
5 5 5 6 6 5 5 5 5 5 5 5 4 3 3 3 4 3 3 3 2 1 2 3 3 3 4 4 3 3 4 5 5 6 6 7 7 7 8 8 7 7 7 7 7 7 8 8 9
4 5 5 6 6 6 6 6 6 6 6 5 4 3 3 4 4 3 3 3 2 2 3 2 2 3 3 3 3 3 3 4 5 5 6 7 7 8 8 8 8 7 7 7 8 7 8 8 8
4 5 5 6 6 6 6 6 6 6 6 6 5 4 4 4 4 4 3 3 3 3 3 2 2 3 3 3 3 3 3 3 4 6 6 7 7 7 7 7 6 7 7 7 7 7 7 8 8
4 5 6 6 6 6 6 6 6 7 7 6 5 4 4 4 4 3 3 3 3 3 2 2 2 2 3 3 3 3 3 3 4 5 5 5 7 7 6 7 6 7 7 7 8 8 8 8 8
4 5 6 6 7 6 7 6 7 7 7 6 6 5 4 4 4 3 3 3 3 3 3 2 2 3 3 3 3 3 3 3 4 4 4 5 6 6 7 6 6 6 6 7 7 8 8 8 9
4 5 6 6 6 6 6 6 7 7 7 7 6 5 4 4 4 3 3 3 3 3 3 3 3 3 3 3 3 2 2 2 3 3 4 5 5 6 7 6 5 6 6 6 6 6 7 8 8
3 4 6 6 6 6 6 6 7 7 7 7 7 6 5 5 4 4 3 3 3 3 3 3 3 3 3 3 2 2 3 2 2 2 3 4 4 5 5 6 5 6 6 6 6 6 7 8 8
4 4 5 6 6 6 5 6 7 7 7 7 7 6 5 5 5 4 4 3 3 3 3 3 3 3 3 3 3 3 3 3 2 2 3 3 3 4 4 5 5 5 6 6 6 6 6 7 8
4 4 5 5 6 6 6 6 6 7 7 7 7 6 5 5 4 4 4 4 4 4 4 4 4 3 3 3 3 3 3 3 3 3 3 3 3 4 4 4 5 5 6 6 6 6 6 6 7
4 4 4 5 5 6 6 6 6 7 7 7 6 6 5 5 5 5 4 4 4 4 4 4 4 4 4 3 3 3 3 4 4 4 4 4 4 4 4 5 5 5 6 6 6 6 6 7 6
4 4 5 5 6 6 7 6 7 7 7 7 7 6 6 6 5 5 5 5 5 5 4 4 5 5 4 4 4 4 4 4 5 5 5 4 5 5 5 5 5 5 5 5 5 6 6 7 7
6 6 6 6 6 6 7 7 7 7 7 7 7 6 6 6 6 6 6 6 6 5 5 5 5 5 5 5 5 5 5 5 6 6 5 5 6 6 6 6 6 6 5 5 6 6 6 7 7
7 7 7 7 6 6 6 7 7 8 7 7 7 6 6 6 6 6 6 6 6 6 5 5 6 6 5 6 6 5 5 6 6 6 6 6 6 6 6 6 6 6 6 6 7 7 7 6 6
8 7 7 7 7 7 7 7 8 8 8 8 8 7 7 7 7 7 6 6 7 7 6 6 6 6 6 6 6 6 6 6 6 6 6 6 7 7 7 7 7 7 7 8 8 8 7 7 6
7 7 8 8 8 8 8 8 8 9 9 8 8 8 7 7 7 7 7 7 7 8 7 7 7 7 7 7 7 7 7 7 8 8 8 8 8 7 7 7 7 8 8 8 8 8 7 7 7
8 8 8 9 9 10 9 9 9 9 9 9 8 8 7 7 7 7 7 7 7 7 7 7 7 7 7 8 8 9 9 8 8 9 9 9 9 9 9 9 8 8 9 8 8 8 8 8 8
9 9 10 10 10 10 10 10 10 10 10 9 9 9 8 7 7 7 7 7 7 7 7 7 7 8 8 9 9 9 9 9 9 10 10 10 10 10 10 10 9 9 9 9 9 9 9 9 10
11 10 11 11 12 12 11 11 11 11 10 10 10 10 9 8 8 8 8 8 8 8 7 8 8 8 9 9 9 9 10 10 10 10 10 10 10 10 10 10 10 9 9 10 10 10 10 10 11
12 12 12 13 13 13 13 12 12 12 11 10 10 10 10 10 9 9 9 9 9 9 9 9 9 9 9 9 10 10 10 10 10 10 10 10 10 10 10 10 11 11 11 11 11 12 12 12 12
13 13 14 14 14 14 14 14 12 12 13 12 11 11 11 11 10 10 10 10 10 10 10 10 10 11 11 11 11 11 11 11 11 11 10 10 10 10 11 11 12 12 13 13 13 13 14 13 13
Wind_Direction
19 18 20 19 14 6 4 4 357 335 315 310 326 281 261 251 246 238 237 231 229 226 224 225 224 229 230 226 224 220 223 220 220 216 213 216 217 217 216 219 220 225 226 225 222 221 226 230 229
16 16 17 13 9 3 1 6 6 5 4 356 336 289 252 237 240 236 238 232 234 224 220 225 230 236 239 236 234 229 235 232 230 221 215 218 220 216 219 225 224 225 223 221 219 223 227 230 231
18 17 17 11 10 4 2 4 4 0 1 342 324 307 261 243 245 244 232 226 230 222 221 230 240 247 247 242 235 237 245 240 231 225 225 228 228 222 226 232 230 223 220 221 222 227 230 230 231
20 23 22 19 18 14 7 2 357 356 346 340 342 334 277 269 264 249 234 230 231 221 225 234 245 249 251 245 243 245 248 238 234 234 229 234 233 231 228 230 231 222 222 227 227 227 231 235 240
23 25 23 24 20 17 6 352 348 354 348 340 339 350 340 312 285 263 241 235 232 224 232 242 248 249 250 247 243 244 242 234 237 241 235 236 236 235 231 229 227 220 224 229 227 229 234 240 242
26 26 24 21 17 12 4 357 359 359 355 354 349 345 339 328 309 290 267 248 235 235 237 243 246 245 248 248 240 237 235 233 237 243 239 239 239 238 237 229 228 228 230 233 231 235 239 244 250
24 25 21 16 12 9 3 4 0 358 357 356 351 346 342 338 315 310 288 261 246 239 238 240 244 245 244 241 233 231 230 228 232 239 238 240 242 243 240 233 234 236 236 237 239 241 244 249 253
21 17 16 17 12 4 357 355 356 355 353 355 357 350 343 339 330 315 316 278 261 246 239 240 247 251 241 235 233 228 227 231 236 239 239 237 240 245 243 241 244 242 240 241 246 250 249 250 250
21 20 20 20 16 8 1 357 358 355 349 348 351 349 347 344 342 328 329 308 282 260 244 237 244 245 237 233 235 230 229 236 238 240 239 239 243 246 244 247 249 248 246 245 247 251 251 254 251
23 24 25 23 22 15 12 11 6 360 359 354 346 340 338 341 342 326 315 320 325 282 251 242 244 245 239 235 234 236 236 238 239 240 242 243 246 249 246 248 251 250 251 249 249 249 252 254 254
22 22 23 22 19 13 12 13 9 3 1 354 345 339 334 335 337 343 338 329 319 319 298 263 255 246 235 236 242 249 247 244 246 246 245 246 250 251 248 249 251 253 256 255 255 255 252 252 255
13 15 16 17 14 12 10 10 10 4 1 353 348 336 329 327 335 343 335 341 334 315 308 281 264 261 246 239 247 256 258 248 246 247 246 249 252 253 249 249 252 256 258 261 261 259 253 250 255
7 8 11 9 10 12 9 6 4 2 358 356 348 342 347 344 344 350 351 354 349 334 319 300 283 269 261 256 257 259 262 253 253 250 248 248 250 251 248 246 251 253 254 261 260 252 255 258 260
359 2 4 4 6 6 3 2 1 -0 357 356 357 351 352 353 353 354 355 352 353 344 327 308 284 275 271 273 270 268 268 263 259 253 249 249 247 247 246 250 253 251 252 254 254 253 259 259 266
350 357 0 2 5 4 4 3 359 358 358 2 3 357 351 350 349 346 347 346 347 341 334 316 303 287 275 274 269 268 275 271 270 258 249 254 257 251 253 252 252 251 253 252 252 253 257 262 266
346 353 350 355 357 358 0 358 358 358 359 2 3 360 354 349 349 345 337 338 341 332 325 323 323 312 288 281 274 268 276 280 270 265 263 259 257 258 260 259 254 257 261 263 261 261 262 263 264
339 341 340 343 348 350 351 351 353 357 357 356 356 354 349 347 348 348 340 336 336 332 331 329 320 314 296 297 295 291 289 285 280 278 273 263 259 260 263 262 263 269 270 271 270 269 272 270 269
322 324 329 336 342 343 346 344 347 354 356 352 352 354 352 347 347 351 349 341 330 324 320 324 321 313 316 315 308 302 298 291 289 289 288 287 275 266 265 263 271 278 281 281 283 280 281 279 278
310 318 323 329 334 336 339 340 342 349 353 350 346 347 348 349 345 347 345 332 325 318 312 314 316 307 313 313 309 302 298 287 283 283 288 291 283 273 271 261 269 275 281 284 285 284 281 281 282
299 309 316 321 325 327 332 337 340 343 346 343 337 333 335 339 339 331 329 323 319 314 314 317 315 315 314 315 308 299 300 285 285 284 282 281 275 272 273 272 273 277 281 284 285 287 284 285 287
296 300 305 313 319 324 327 331 331 334 335 333 327 319 320 324 329 326 310 309 315 310 305 308 315 313 313 315 309 302 295 287 284 285 287 281 273 271 270 271 274 277 282 287 286 288 291 294 290
286 290 296 304 310 313 317 319 321 324 331 330 324 318 315 313 315 315 312 307 306 308 302 303 307 308 307 309 308 301 291 289 290 285 281 278 275 276 269 269 270 272 278 285 287 288 290 294 292
281 285 289 296 303 306 308 309 313 316 322 324 323 318 313 305 306 305 303 303 300 305 303 300 304 308 306 306 305 300 292 289 290 286 282 280 279 276 272 270 268 270 275 280 286 288 285 288 289
280 283 286 291 296 299 301 301 303 308 313 314 316 312 308 304 301 302 298 295 296 301 303 297 298 299 303 304 306 302 293 289 287 286 284 284 284 275 267 268 268 271 276 280 284 286 284 281 282
277 282 287 290 289 292 295 295 297 298 302 306 310 308 304 303 302 301 301 298 300 301 301 298 293 295 300 302 301 298 294 286 282 284 283 283 284 278 271 270 270 271 275 276 278 281 280 278 279
271 274 277 284 287 291 295 294 293 294 295 299 302 304 302 301 298 299 301 301 303 301 299 296 293 295 297 297 297 296 294 292 289 289 285 281 280 277 274 270 268 267 268 271 273 277 276 273 273
270 273 275 280 285 290 294 294 294 292 290 292 294 297 297 292 290 294 297 297 300 301 300 298 296 294 294 294 296 295 293 291 292 291 288 283 280 279 274 270 266 264 268 270 269 274 276 275 274
269 272 276 279 284 289 293 294 293 290 289 289 289 289 293 290 286 286 289 290 294 297 298 295 292 293 293 293 295 295 294 291 290 291 291 287 280 277 271 266 265 269 270 270 270 271 274 277 276
271 273 275 277 280 284 287 289 290 286 285 287 287 285 285 286 282 279 282 286 287 289 291 293 293 292 291 292 294 293 292 290 290 290 293 289 281 274 270 268 267 269 271 272 272 272 274 276 279
273 274 275 276 278 279 282 285 287 285 283 282 282 280 279 279 276 276 280 281 282 285 287 288 292 292 292 293 294 290 288 290 288 286 287 287 280 275 272 270 267 268 270 272 273 274 273 275 278
Height
5892 5891 5891 5891 5892 5890 5889 5888 5887 5887 5886 5886 5885 5884 5884 5884 5884 5886 5883 5881 5881 5881 5880 5880 5880 5880 5880 5880 5880 5880 5880 5880 5880 5880 5880 5880 5880 5880 5880 5880 5880 5880 5881 5881 5881 5882 5882 5882 5883
5892 5891 5892 5892 5891 5890 5889 5888 5887 5886 5886 5885 5884 5884 5883 5883 5883 5882 5881 5881 5880 5880 5879 5879 5880 5879 5879 5879 5879 5879 5879 5879 5879 5879 5879 5879 5879 5879 5879 5879 5880 5880 5880 5880 5880 5881 5882 5882 5882
5892 5891 5892 5891 5889 5889 5889 5887 5886 5886 5885 5884 5884 5883 5882 5882 5881 5881 5880 5880 5879 5879 5878 5878 5878 5878 5878 5878 5878 5878 5878 5878 5878 5878 5878 5879 5879 5879 5879 5879 5879 5878 5879 5879 5880 5880 5881 5881 5881
5892 5892 5892 5891 5889 5889 5888 5887 5886 5885 5884 5883 5883 5882 5881 5881 5880 5880 5879 5879 5878 5878 5877 5877 5877 5877 5877 5877 5877 5877 5877 5877 5877 5877 5877 5878 5877 5878 5878 5878 5877 5877 5878 5878 5879 5879 5879 5880 5880
5892 5892 5891 5890 5889 5889 5888 5887 5886 5885 5884 5883 5882 5881 5880 5880 5879 5879 5878 5878 5877 5877 5876 5876 5876 5876 5876 5876 5876 5876 5876 5876 5876 5876 5876 5877 5876 5877 5877 5877 5876 5876 5877 5877 5878 5878 5879 5879 5879
5893 5892 5891 5890 5889 5888 5887 5887 5886 5885 5884 5883 5882 5881 5880 5879 5878 5878 5877 5876 5876 5876 5875 5875 5875 5875 5875 5875 5875 5875 5875 5875 5875 5875 5875 5876 5876 5876 5876 5876 5876 5876 5876 5877 5877 5877 5878 5878 5878
5893 5892 5891 5890 5889 5888 5887 5886 5885 5884 5883 5882 5881 5880 5879 5878 5878 5877 5876 5876 5875 5875 5875 5874 5874 5874 5874 5874 5874 5874 5874 5874 5874 5874 5875 5875 5875 5875 5875 5875 5876 5876 5876 5876 5876 5876 5876 5877 5876
5893 5893 5891 5890 5889 5888 5887 5886 5885 5884 5883 5882 5881 5880 5879 5878 5877 5877 5876 5875 5874 5874 5874 5873 5873 5873 5873 5873 5873 5873 5873 5873 5874 5874 5874 5874 5874 5874 5874 5874 5875 5875 5875 5875 5875 5875 5875 5875 5875
5893 5893 5891 5890 5889 5888 5886 5885 5884 5883 5882 5881 5880 5879 5879 5878 5877 5876 5875 5874 5874 5873 5873 5873 5872 5872 5872 5872 5872 5872 5872 5872 5873 5873 5873 5873 5873 5873 5873 5873 5874 5874 5874 5874 5874 5874 5874 5874 5874
5893 5892 5891 5890 5889 5887 5886 5885 5884 5883 5882 5881 5880 5879 5878 5877 5876 5875 5874 5874 5873 5872 5872 5872 5872 5871 5871 5871 5872 5872 5872 5872 5872 5872 5872 5872 5872 5872 5872 5872 5872 5872 5872 5872 5872 5872 5872 5872 5872
5893 5892 5891 5889 5888 5887 5886 5885 5884 5882 5881 5880 5879 5878 5877 5876 5876 5875 5874 5873 5872 5872 5872 5871 5871 5871 5871 5871 5871 5871 5871 5871 5870 5870 5871 5871 5871 5871 5871 5871 5871 5871 5871 5871 5871 5871 5871 5871 5871
5892 5891 5890 5889 5888 5887 5886 5885 5884 5882 5881 5880 5878 5877 5877 5876 5875 5874 5873 5873 5872 5872 5871 5871 5870 5870 5870 5870 5870 5870 5870 5870 5870 5869 5869 5869 5869 5869 5869 5869 5869 5870 5870 5870 5869 5869 5869 5869 5869
5892 5891 5890 5889 5888 5887 5886 5885 5883 5882 5881 5879 5878 5877 5876 5876 5875 5874 5873 5873 5872 5871 5871 5870 5870 5870 5869 5869 5869 5869 5869 5869 5868 5868 5868 5868 5868 5868 5868 5868 5868 5868 5868 5868 5868 5868 5868 5868 5868
5892 5891 5890 5889 5888 5887 5886 5884 5883 5882 5881 5879 5878 5877 5876 5875 5875 5874 5873 5873 5872 5871 5871 5870 5870 5869 5869 5869 5868 5868 5868 5868 5867 5867 5867 5866 5866 5867 5867 5867 5867 5866 5866 5867 5867 5866 5866 5866 5866
5892 5891 5890 5889 5888 5887 5886 5885 5883 5882 5880 5879 5878 5877 5876 5875 5874 5874 5873 5873 5872 5871 5871 5870 5869 5869 5869 5868 5868 5867 5867 5867 5866 5866 5865 5865 5865 5865 5865 5865 5865 5865 5865 5865 5865 5865 5864 5864 5864
5891 5891 5890 5889 5888 5887 5887 5885 5883 5882 5880 5879 5878 5877 5876 5875 5874 5874 5873 5872 5872 5871 5870 5870 5869 5869 5868 5868 5867 5867 5866 5866 5865 5865 5864 5864 5864 5864 5864 5864 5864 5864 5863 5863 5863 5863 5863 5862 5862
5891 5891 5890 5889 5887 5886 5886 5884 5883 5882 5880 5879 5878 5877 5876 5875 5874 5873 5873 5872 5871 5871 5870 5869 5868 5868 5868 5867 5866 5866 5865 5865 5864 5864 5863 5863 5863 5863 5863 5863 5863 5862 5862 5862 5862 5862 5861 5861 5860
5891 5890 5889 5888 5887 5886 5885 5884 5883 5881 5880 5879 5878 5876 5875 5875 5874 5873 5872 5872 5871 5870 5869 5869 5868 5867 5867 5866 5866 5865 5865 5864 5863 5863 5863 5862 5862 5862 5862 5862 5861 5861 5861 5861 5860 5860 5860 5859 5858
5890 5890 5889 5888 5887 5886 5884 5884 5883 5881 5880 5879 5877 5876 5875 5874 5873 5873 5872 5871 5870 5869 5869 5868 5867 5867 5866 5865 5865 5864 5864 5863 5863 5862 5862 5862 5861 5861 5861 5861 5861 5860 5860 5860 5859 5858 5858 5857 5857
5889 5889 5888 5887 5886 5885 5884 5883 5882 5881 5880 5878 5877 5876 5875 5874 5873 5872 5871 5870 5869 5869 5868 5867 5867 5866 5865 5864 5864 5863 5863 5862 5862 5861 5861 5860 5860 5860 5860 5859 5859 5859 5859 5858 5858 5857 5856 5856 5855
5887 5887 5887 5886 5885 5884 5883 5883 5882 5880 5879 5878 5877 5876 5875 5874 5873 5872 5871 5870 5868 5868 5867 5867 5866 5865 5864 5864 5863 5862 5861 5861 5861 5860 5860 5859 5859 5859 5858 5858 5858 5858 5858 5857 5856 5856 5855 5855 5854
5886 5886 5885 5885 5884 5884 5883 5882 5881 5879 5878 5877 5875 5874 5874 5873 5872 5871 5870 5869 5868 5867 5866 5866 5865 5864 5863 5862 5862 5861 5860 5860 5859 5858 5858 5858 5857 5857 5857 5856 5856 5856 5856 5856 5855 5855 5854 5853 5852
5884 5884 5883 5883 5882 5882 5881 5881 5880 5878 5877 5876 5874 5873 5872 5871 5870 5869 5868 5867 5867 5866 5865 5864 5864 5863 5862 5861 5860 5859 5859 5858 5857 5857 5856 5856 5855 5855 5855 5854 5854 5854 5854 5854 5853 5853 5852 5851 5851
5882 5882 5882 5881 5881 5881 5880 5879 5879 5877 5876 5874 5873 5872 5871 5870 5869 5868 5867 5866 5865 5865 5864 5863 5862 5861 5860 5860 5859 5858 5857 5856 5856 5855 5854 5854 5853 5853 5852 5852 5852 5852 5852 5852 5851 5851 5850 5850 5849
5880 5881 5881 5880 5880 5879 5878 5877 5877 5875 5873 5872 5871 5870 5869 5868 5867 5866 5866 5865 5864 5863 5862 5861 5861 5860 5859 5858 5857 5856 5855 5854 5854 5853 5852 5852 5851 5850 5850 5850 5850 5850 5850 5849 5849 5849 5848 5848 5847
5878 5878 5879 5879 5878 5877 5875 5874 5874 5872 5871 5870 5869 5868 5867 5866 5865 5864 5864 5863 5862 5861 5860 5860 5859 5858 5857 5856 5855 5854 5853 5852 5851 5850 5850 5849 5848 5848 5848 5847 5847 5847 5847 5847 5847 5846 5846 5845 5845
5875 5875 5876 5875 5874 5874 5873 5872 5871 5869 5868 5867 5866 5865 5864 5864 5863 5862 5862 5861 5860 5859 5859 5858 5857 5856 5855 5854 5853 5852 5851 5850 5849 5848 5847 5846 5845 5845 5845 5844 5845 5845 5845 5844 5844 5844 5843 5843 5842
5873 5872 5873 5872 5871 5871 5870 5869 5869 5866 5865 5864 5863 5862 5862 5861 5861 5860 5859 5859 5858 5857 5856 5855 5855 5854 5853 5852 5851 5850 5848 5847 5846 5845 5844 5843 5842 5842 5842 5842 5842 5842 5842 5842 5841 5841 5841 5840 5840
5870 5869 5869 5868 5868 5867 5867 5868 5865 5864 5862 5861 5860 5860 5859 5858 5858 5857 5857 5856 5856 5855 5854 5853 5852 5851 5850 5849 5848 5847 5845 5844 5843 5842 5841 5840 5839 5839 5838 5839 5839 5839 5839 5839 5838 5838 5838 5837 5837
5865 5865 5865 5865 5864 5863 5862 5865 5861 5860 5859 5858 5857 5856 5855 5855 5854 5854 5854 5853 5853 5852 5851 5850 5849 5848 5847 5846 5845 5843 5842 5841 5840 5839 5838 5836 5836 5835 5835 5835 5835 5835 5835 5835 5835 5835 5834 5834 5833